Regional Weather Roundup
Issued by NWS Charleston, SC

Current Version | Previous Version | Text Only | Print | Product List | Glossary Off
Versions: 1 2 3 4 5 6 7 8 9 10 11 12 13 14 15 16 17 18 19 20 21 22 23 24 25 26 27 28 29 30 31 32 33 34 35 36 37 38 39 40 41 42 43 44 45 46 47 48 49 50
000 ASUS42 KCHS 300928 RWRCHS REGIONAL WEATHER ROUNDUP NATIONAL WEATHER SERVICE CHARLESTON SC 500 AM EDT MON MAY 30 2016 NOTE: "FAIR" INDICATES FEW OR NO CLOUDS BELOW 12,000 FEET WITH NO SIGNIFICANT WEATHER AND/OR OBSTRUCTIONS TO VISIBILITY. NOT ALL STATIONS ARE QUALITY CONTROLLED. USE DATA WITH CAUTION... ESPECIALLY DEWPOINT OBSERVATIONS. SCZ027-030-031-034>040-042>050-301000- ...SOUTHEAST SOUTH CAROLINA... CITY SKY/WX TMP DP RH WIND PRES REMARKS N CHARLESTON CLOUDY 71 68 90 W6 29.89R WATERFRONT PRK N/A 71 69 93 CALM 29.87S MOUNT PLEASANT CLOUDY 70 70 100 CALM 29.89S JOHNS ISLAND PTSUNNY 72 70 94 CALM 29.90R PINOPOLIS N/A 72 70 94 N8 29.80 MONCKS CORNER LGT RAIN 66 64 94 CALM 29.89R SUMMERVILLE LGT RAIN 70 70 100 W3 29.90S BEAUFORT MCAS CLOUDY 69 67 93 W8 29.92R BEAUFORT ARPT CLOUDY 68 68 100 W6 29.92R HILTON HEAD IS PTCLDY 68 68 100 W5 29.94R WALTERBORO CLOUDY 70 70 100 NW7 29.92R ALLENDALE PTSUNNY 68 66 94 CALM 29.93R ...SOUTHERN MIDLANDS AND PEE DEE... CITY SKY/WX TMP DP RH WIND PRES REMARKS GEORGETOWN PTSUNNY 68 68 100 SE5 29.90R KINGSTREE DRIZZLE 70 68 94 N5 29.88F ORANGEBURG LGT RAIN 68 66 93 N8 29.92S BARNWELL PTSUNNY 70 70 100 NW7 29.94R AIKEN FAIR 64 61 88 NW5 30.00R MANNING DRIZZLE 68 68 100 N8 29.90S COLUMBIA CLOUDY 70 63 78 N7 29.94S SUMTER CLOUDY 66 66 100 N13 29.91R FLORENCE LGT RAIN 72 70 93 N7 29.91F FOG MYRTLE BEACH CLOUDY 73 64 73 S16G23 29.92S N MYRTLE BEACH CLOUDY 75 70 84 SE7 29.91S $$ GAZ063-065-086>088-099>101-113>116-118-119-134>141-150-301000- ...SOUTHEAST GEORGIA... CITY SKY/WX TMP DP RH WIND PRES REMARKS SAVANNAH ARPT CLOUDY 68 64 87 W5 29.95R HUNTER AAF CLOUDY 68 66 94 W3 29.92R FORT STEWART CLOUDY 70 62 74 W1 29.93S STATESBORO CLOUDY 67 66 95 NW5 29.96R SYLVANIA CLOUDY 69 66 90 NW6 29.96R CLAXTON CLOUDY 68 65 89 W5 29.97R ...CSRA...CENTRAL AND FAR SOUTHEAST GEORGIA... CITY SKY/WX TMP DP RH WIND PRES REMARKS THOMSON PTCLDY 63 63 100 NW3 30.04R AUGUSTA-BUSH PTCLDY 67 63 87 NW9 29.96R AUGUSTA-DANIEL PTCLDY 67 60 78 NW8 29.97S SWAINSBORO FAIR 64 63 94 CALM 29.99R VIDALIA MOCLDY 70 61 73 NW3 29.98S EASTMAN N/A N/A N/A N/A CALM 30.02R FOG HAZLEHURST FAIR 68 65 89 CALM 29.97S ALMA PTCLDY 69 63 81 NW3 29.97S WAYCROSS MOCLDY 67 64 90 CALM 29.98R JESUP CLOUDY 64 59 82 CALM 29.97S BAXLEY MOCLDY 72 63 73 NW3 29.97S BRUNSWICK CLOUDY 75 64 69 NW3 29.97S SAINT SIMONS CLOUDY 73 62 68 NW3 29.95S $$ SCZ027-028-034-036>038-045-046-048>050-GAZ119-141-301000- ...LAKE AND SUPPLEMENTAL COASTAL OBSERVATIONS... STATION/POSITION TIME TEMP WIND PRES WAVE SWELL AIR SEA DIR/SP/G HT/PER HT/PER/DIR (UTC) (F) (DEG/KT/KT) (MB) (FT/S) (FT/S/D) WINYAH BAY 0800 73 170/ 11 1011.0 LAKE MURRAY 0800 69 20/ 2/ 6 1013.9F ACE BASIN NERRS 0800 69 290/ 2 1013.0S FORT PULASKI 0900 70 75 250/ 6/ 8 1014.2R SAPELO ISLAND 0900 73 300/ 6 1014.0S $$ ANZ835-935-AMZ111-154-330-350-352-354-370-450-454-472-301000- ...C-MAN AND BUOY OBSERVATIONS... STATION/POSITION TIME TEMP WIND PRES WAVE SWELL AIR SEA DIR/SP/G HT/PER HT/PER/DIR (UTC) (F) (DEG/KT/KT) (MB) (FT/S) (FT/S/D) BUOY 41004 0850 74 77 210/ 14/ 17 1011.9R 5/ 6 3/ 8 BUOY 41008 0850 75 76 280/ 10/ 12 1013.8R 2/ 8 2/100/ 8 FOLLY BEACH CMAN 0900 70 280/ 1/ 3 1012.3R CAPERS NEARSHORE 0908 72 76 260/ 6/ 10 1011.7S FRIPP NEARSHORE 0908 71 75 280/ 12/ 16 1012.4R STATION/POSITION TIME TEMP WIND PRES WAVE SWELL AIR SEA DIR/SP/G HT/PER HT/PER/DIR (UTC) (F) (DEG/KT/KT) (MB) (FT/S) (FT/S/D) 5E ST. MARYS GA 0901 78 N/A 2/ 8 FRYING PAN BUOY 0900 78 78 180/ 16/ 17 1013.3F BUOY 41025 0850 76 81 170/ 14/ 17 1016.0R 5/ 8 3/180/ 8 CAPE LOOKOUT NC 0900 74 210/ 5/ 7 1014.9F BUOY 41002 0850 75 76 120/ 12/ 14 1016.0S 4/ 8 3/110/ 8 BUOY 41010 0820 78 79 200/ 8/ 8 1015.3F ST AUGUSTINE FL 0900 72 79 240/ 9/ 10 1015.8R $$

USA.gov is the U.S. government's official web portal to all federal, state and local government web resources and services.